Regional Weather Roundup
Issued by NWS Mt. Holly, NJ

Home | Current Version | Previous Version | Text Only | Print | Product List | Glossary On
Versions: 1 2 3 4 5 6 7 8 9 10 11 12 13 14 15 16 17 18 19 20 21 22 23 24 25 26 27
000
ASUS41 KPHI 231210
RWRPHI

REGIONAL WEATHER ROUNDUP
NATIONAL WEATHER SERVICE MOUNT HOLLY NJ
800 AM EDT WED APR 23 2014

NOTE:  "FAIR" INDICATES FEW OR NO CLOUDS BELOW 12,000 FEET WITH NO
SIGNIFICANT WEATHER AND/OR OBSTRUCTIONS TO VISIBILITY.

 * = STATION DOES NOT REPORT PRECIPITATION (E.G. RAIN, SNOW, ETC.)
        OR FOG.

NJZ015>026-231300-
SOUTHERN NEW JERSEY

CITY           SKY/WX    TMP DP  RH WIND       PRES   REMARKS
POMONA         SUNNY     51  34  52 NW24G37   29.65R
6HR MIN TEMP:  48; 6HR MAX TEMP:  59;

RIO GRANDE*    SUNNY     52  36  54 NW16G25   29.68S
MILLVILLE      SUNNY     51  35  54 NW17G26   29.69R
WRIGHTSTOWN    SUNNY     51  33  51 NW16      29.62R
MOUNT HOLLY    SUNNY     50  33  52 W17G25    29.66R
TRENTON        PTSUNNY   49  33  54 NW15G30   29.64R
6HR MIN TEMP:  47; 6HR MAX TEMP:  56;


$$
NJZ001>014-231300-
NORTHERN NEW JERSEY

CITY           SKY/WX    TMP DP  RH WIND       PRES   REMARKS
SUSSEX         CLOUDY    48  35  60 MISG      29.61R
ANDOVER*         N/A     45  35  68 N10G18    29.62R
MORRISTOWN     PTSUNNY   50  32  50 NW15G24   29.60S
NEWARK         PTSUNNY   51  32  48 NW18G31   29.59R
TETERBORO      CLOUDY    51  33  50 NW12G21   29.58R
CALDWELL       CLOUDY    49  33  54 NW10G23   29.59S
SOMERVILLE     CLOUDY    49  33  54 W9G24     29.61R
ALLAIRE*       SUNNY     52  30  43 W13G21    29.60S
TOMS RIVER*    SUNNY     45  34  65 NW21G30   29.62S

$$
PAZ043-044-047-054-055-060>062-066>071-231300-
EASTERN PENNSYLVANIA

CITY           SKY/WX    TMP DP  RH WIND       PRES   REMARKS
PHILADELPHIA   MOSUNNY   51  31  46 NW23G33   29.69R
6HR MIN TEMP:  49; 6HR MAX TEMP:  57;

NORTH PHILA    MOSUNNY   50  33  52 NW16G23   29.68R
BLUE BELL      SUNNY     50  34  53 NW12G22   29.66R
DOYLESTOWN     PTSUNNY   47  35  63 NW13      29.64R
QUAKERTOWN*    CLOUDY    46  34  61 W9G21     29.67R
POTTSTOWN      PTSUNNY   47  34  60 NW12G29   29.69R
LANCASTER      MOSUNNY   46  32  58 NW23G30   29.72R
COATESVILLE    PTSUNNY   45  32  61 NW23G32   29.71R
READING        CLOUDY    47  33  58 W13G26    29.70R
6HR MIN TEMP:  46; 6HR MAX TEMP:  49;

ALLENTOWN      CLOUDY    47  34  60 NW12G20   29.66R
6HR MIN TEMP:  47; 6HR MAX TEMP:  50;

MOUNT POCONO   LGT RAIN  38  34  85 NW17G23   29.60R WCI  28
6HR MIN TEMP:  37; 6HR MAX TEMP:  45; 6HR PCP: TRACE;

HAZLETON       CLOUDY    39  32  75 W13G21    29.68S WCI  32
WILKES BARRE   CLOUDY    42  35  76 NW16G25   29.67R

$$
DEZALL-MDZ008-012-015-019-020-231300-
DELAWARE AND EASTERN MARYLAND

CITY           SKY/WX    TMP DP  RH WIND       PRES   REMARKS
WILMINGTON     MOSUNNY   50  33  52 NW18G28   29.72R
6HR MIN TEMP:  48; 6HR MAX TEMP:  56;

DOVER          SUNNY     51  36  55 NW17G24   29.66R
GEORGETOWN     SUNNY     53  34  48 NW16G25   29.69S
6HR MIN TEMP:  50; 6HR MAX TEMP:  58;

EASTON         MOSUNNY   54  37  54 NW20G29   29.78R
PATUXENT       MOSUNNY   53  35  50 NW23G32   29.73R
OCEAN CITY     SUNNY     53  35  50 NW10G20   29.69S
WALLOPS ISLAND SUNNY     55  37  50 N13G22    29.71R
CAMBRIDGE      SUNNY     54  34  47 NW24G33   29.73R
SALISBURY      SUNNY     54  35  48 NW18G28   29.70R

$$
PAZ001-021-NYZ056-072-MDZ011-DCZ001-231300-
OTHER NEARBY LOCATIONS

CITY           SKY/WX    TMP DP  RH WIND       PRES   REMARKS
HARRISBURG     MOSUNNY   48  31  51 NW26G35   29.74R
STATE COLLEGE  CLOUDY    41  30  65 W12G17    29.79R
WILLIAMSPORT   CLOUDY    45  32  60 W18G24    29.73R
BINGHAMTON     CLOUDY    37  35  92 W12G20    29.64R WCI  29
NEW YORK CITY  CLOUDY    50  32  50 VRB7G22   29.60R
BALTIMORE      MOSUNNY   50  33  52 NW15G23   29.77R
WASHINGTON DC  MOSUNNY   53  33  46 NW15G24   29.78R

$$



USA.gov is the U.S. government's official web portal to all federal, state and local government web resources and services.